Toledo, OH

6:08 PM EDT on May 24, 2018 (GMT -0400)
Toledo Express

Weather History for KTOL - May, 2013

Change the Weather History Date:

Monday, May 13, 2013

  Actual Average Record
Temperature  
Mean Temperature 44 °F 59 °F  
Max Temperature 57 °F 70 °F 89 °F (1991)
Min Temperature 30 °F 48 °F 30 °F (1946)
Degree Days  
Heating Degree Days 21 7  
Month to date heating degree days 86 115  
Since 1 July heating degree days 6063 6017  
Cooling Degree Days 0 1  
Month to date cooling degree days 6 10  
Year to date cooling degree days 6 18  
Moisture  
Dew Point 22 °F    
Average Humidity 53    
Maximum Humidity 85    
Minimum Humidity 21    
Precipitation  
Precipitation 0.00 in 0.11 in 1.15 in (2018)
Month to date precipitation 0.23 1.42  
Year to date precipitation 12.12 11.21  
Snow  
Snow 0.00 in 0.00 in - ()
Month to date snowfall 0.0 0.1  
Since 1 July snowfall 22.4 37.6  
Snow Depth 0.00 in    
Sea Level Pressure  
Sea Level Pressure 30.15 in    
Wind  
Wind Speed 7 mph (WNW)    
Max Wind Speed 20 mph    
Max Gust Speed 25 mph    
Visibility 10 miles    
Events      
T = Trace of Precipitation, MM = Missing Value Source: NWS Daily Summary

Daily Weather History Graph

Daily Weather History Graph

Search for Another Location

Airport or City:

Astronomy

May. 13, 2013 Rise Set
Actual Time 6:17 AM EDT 8:46 PM EDT
Civil Twilight 5:46 AM EDT 9:17 PM EDT
Nautical Twilight 5:07 AM EDT 9:56 PM EDT
Astronomical Twilight 4:23 AM EDT 10:40 PM EDT
Moon 9:02 AM EDT (5/13) 11:54 PM EDT (5/13)
Length of Visible Light 15h 31m
Length of Day
14h 28m
Waxing Crescent, 12% of the Moon is Illuminated
May 13
Waxing Crescent
May 18
First Quarter
May 25
Full
May 31
Last Quarter
Jun 8
New

Hourly Weather History & Observations

Time (EDT) Temp. Windchill Dew Point Humidity Pressure Visibility Wind Dir Wind Speed Gust Speed Precip Events Conditions
12:52 AM 30.9 °F - 26.1 °F 82% 30.13 in 10.0 mi Calm Calm - N/A   Clear
1:52 AM 30.9 °F 26.2 °F 26.1 °F 82% 30.12 in 10.0 mi WSW 4.6 mph - N/A   Clear
2:52 AM 33.1 °F 30.0 °F 26.1 °F 75% 30.12 in 10.0 mi West 3.5 mph - N/A   Mostly Cloudy
3:52 AM 33.1 °F 28.7 °F 26.1 °F 75% 30.12 in 10.0 mi WSW 4.6 mph - N/A   Scattered Clouds
4:52 AM 33.1 °F 27.7 °F 25.0 °F 72% 30.12 in 10.0 mi West 5.8 mph - N/A   Partly Cloudy
5:52 AM 30.9 °F 27.5 °F 25.0 °F 79% 30.13 in 10.0 mi West 3.5 mph - N/A   Clear
6:52 AM 34.0 °F 31.0 °F 25.0 °F 70% 30.14 in 10.0 mi WNW 3.5 mph - N/A   Scattered Clouds
7:52 AM 37.0 °F 33.3 °F 26.1 °F 65% 30.16 in 10.0 mi NW 4.6 mph - N/A   Clear
8:52 AM 41.0 °F 34.7 °F 23.0 °F 49% 30.18 in 10.0 mi North 10.4 mph - N/A   Clear
9:52 AM 44.1 °F 39.0 °F 19.0 °F 37% 30.19 in 10.0 mi NW 9.2 mph - N/A   Clear
10:52 AM 46.0 °F 41.0 °F 19.0 °F 34% 30.19 in 10.0 mi NW 10.4 mph 16.1 mph N/A   Clear
11:52 AM 48.9 °F - 18.0 °F 29% 30.19 in 10.0 mi North 8.1 mph - N/A   Clear
12:52 PM 51.1 °F - 18.0 °F 27% 30.19 in 10.0 mi WNW 15.0 mph 21.9 mph N/A   Clear
1:52 PM 54.0 °F - 17.1 °F 23% 30.18 in 10.0 mi West 12.7 mph 18.4 mph N/A   Partly Cloudy
2:52 PM 55.0 °F - 17.1 °F 23% 30.17 in 10.0 mi NNW 9.2 mph - N/A   Partly Cloudy
4:52 PM 55.9 °F - 18.0 °F 23% 30.14 in 10.0 mi NW 9.2 mph - N/A   Clear
5:52 PM 57.0 °F - 17.1 °F 21% 30.13 in 10.0 mi NW 13.8 mph 18.4 mph N/A   Clear
6:52 PM 55.9 °F - 17.1 °F 22% 30.12 in 10.0 mi West 12.7 mph 18.4 mph N/A   Clear
7:52 PM 55.4 °F - 19.4 °F 25% 30.12 in 10.0 mi West 5.8 mph - N/A   Clear
8:52 PM 46.9 °F - 24.1 °F 41% 30.14 in 10.0 mi Calm Calm - N/A   Clear
9:52 PM 42.1 °F - 27.0 °F 55% 30.14 in 10.0 mi Calm Calm - N/A   Clear
10:52 PM 41.0 °F - 28.0 °F 60% 30.14 in 10.0 mi Calm Calm - N/A   Clear
11:52 PM 43.0 °F 40.3 °F 28.0 °F 56% 30.13 in 10.0 mi ESE 4.6 mph - N/A   Clear